1547838000.05,59614,0.0,0.0,-17.25,-18.11,-18.11,0,*6E
1547838001.29,59615,0.0,0.0,-17.25,-18.17,-18.17,0,*6F
1547838002.5,59616,0.0,0.0,-17.23,-18.17,-18.21,0,*6F
1547838003.75,59617,0.0,0.0,-17.27,-18.17,-18.31,0,*6B
1547838004.98,59618,0.0,0.0,-17.29,-18.21,-18.25,0,*6A
1547838006.23,59619,0.0,0.0,-17.27,-18.21,-18.31,0,*60
1547838007.47,59620,0.0,0.0,-17.25,-18.21,-18.21,0,*69
1547838008.71,59621,0.0,0.0,-17.25,-18.21,-18.21,0,*68
1547838009.92,59622,0.0,0.0,-17.27,-18.21,-18.21,0,*69
1547838011.14,59623,0.0,0.0,-17.27,-18.21,-18.21,0,*68
1547838012.39,59624,0.0,0.0,-17.27,-18.21,-18.31,0,*6E
1547838013.66,59625,0.0,0.0,-17.27,-18.31,-18.31,0,*6E
1547838014.92,59626,0.0,0.0,-17.29,-18.35,-18.25,0,*62
1547838016.2,59627,0.0,0.0,-17.27,-18.31,-18.31,0,*6C
1547838017.42,59628,0.0,0.0,-17.27,-18.21,-18.21,0,*63
1547838018.63,59629,0.0,0.0,-17.27,-18.17,-18.17,0,*62
1547838019.87,59630,0.0,0.0,-17.29,-18.17,-18.21,0,*61
1547838021.08,59631,0.0,0.0,-17.27,-18.17,-18.17,0,*6B
1547838022.32,59632,0.0,0.0,-17.29,-18.17,-18.21,0,*63
1547838023.56,59633,0.0,0.0,-17.29,-18.21,-18.25,0,*63
1547838024.8,59634,0.0,0.0,-17.29,-18.25,-18.21,0,*64
1547838026.03,59635,0.0,0.0,-17.29,-18.25,-18.21,0,*65
1547838027.28,59636,0.0,0.0,-17.29,-18.21,-18.21,0,*62
1547838028.49,59637,0.0,0.0,-17.27,-18.17,-18.17,0,*6D
1547838029.73,59638,0.0,0.0,-17.29,-18.21,-18.21,0,*6C
1547838030.94,59639,0.0,0.0,-17.27,-18.11,-18.17,0,*65
1547838032.18,59640,0.0,0.0,-17.29,-18.17,-18.21,0,*66
1547838033.39,59641,0.0,0.0,-17.27,-18.17,-18.17,0,*6C
1547838034.63,59642,0.0,0.0,-17.29,-18.17,-18.25,0,*60
1547838035.84,59643,0.0,0.0,-17.27,-18.17,-18.17,0,*6E
1547838037.08,59644,0.0,0.0,-17.29,-18.17,-18.21,0,*62
1547838038.32,59645,0.0,0.0,-17.29,-18.17,-18.17,0,*66
1547838039.55,59646,0.0,0.0,-17.29,-18.17,-18.21,0,*60
1547838040.77,59647,0.0,0.0,-17.27,-18.17,-18.17,0,*6A
1547838042.01,59648,0.0,0.0,-17.27,-18.01,-18.17,0,*62
1547838043.28,59649,0.0,0.0,-17.29,-18.07,-18.01,0,*6C
1547838044.57,59650,0.0,0.0,-17.29,-17.93,-18.01,0,*66
1547838045.79,59651,0.0,0.0,-17.27,-17.87,-17.83,0,*69
1547838047.04,59652,0.0,0.0,-17.27,-17.97,-17.87,0,*6F
1547838048.32,59653,0.0,0.0,-17.27,-17.97,-17.97,0,*6F
1547838049.59,59654,0.0,0.0,-17.29,-18.01,-18.07,0,*60
1547838050.88,59655,0.0,0.0,-17.29,-18.01,-18.01,0,*67
1547838052.15,59656,0.0,0.0,-17.27,-18.01,-18.01,0,*6A
1547838053.39,59657,0.0,0.0,-17.27,-18.01,-18.17,0,*6C
1547838054.6,59658,0.0,0.0,-17.27,-18.17,-18.17,0,*64
1547838055.84,59659,0.0,0.0,-17.29,-18.21,-18.21,0,*6B
1547838057.08,59660,0.0,0.0,-17.29,-18.21,-18.25,0,*65
1547838058.29,59661,0.0,0.0,-17.27,-18.21,-18.17,0,*6B
1547838059.5,59662,0.0,0.0,-17.27,-18.11,-18.17,0,*6B
1547838060.72,59663,0.0,0.0,-17.27,-18.11,-18.17,0,*6A
1547838061.94,59664,0.0,0.0,-17.27,-18.11,-18.11,0,*6B
1547838063.23,59665,0.0,0.0,-17.25,-18.01,-17.97,0,*68
1547838064.5,59666,0.0,0.0,-17.27,-18.01,-18.01,0,*69
1547838065.79,59667,0.0,0.0,-17.29,-18.01,-18.01,0,*66
1547838067.08,59668,0.0,0.0,-17.29,-18.01,-18.01,0,*69
1547838068.37,59669,0.0,0.0,-17.29,-18.01,-18.01,0,*68
1547838069.6,59670,0.0,0.0,-17.27,-17.87,-17.87,0,*6E
1547838070.84,59671,0.0,0.0,-17.27,-17.87,-18.01,0,*6E
1547838072.12,59672,0.0,0.0,-17.27,-17.97,-17.97,0,*6C
1547838073.34,59673,0.0,0.0,-17.27,-17.83,-17.87,0,*69
1547838074.59,59674,0.0,0.0,-17.27,-17.87,-17.97,0,*6B
1547838075.84,59675,0.0,0.0,-17.27,-17.87,-18.01,0,*6A
1547838077.11,59676,0.0,0.0,-17.25,-17.97,-17.87,0,*6B
1547838078.41,59677,0.0,0.0,-17.25,-17.97,-17.97,0,*6B
1547838079.7,59678,0.0,0.0,-17.25,-17.97,-18.01,0,*64
1547838080.99,59679,0.0,0.0,-17.25,-18.01,-17.97,0,*65
1547838082.24,59680,0.0,0.0,-17.27,-17.87,-17.97,0,*60
1547838083.51,59681,0.0,0.0,-17.27,-18.01,-18.01,0,*60
1547838084.79,59682,0.0,0.0,-17.27,-17.97,-17.97,0,*63
1547838086.06,59683,0.0,0.0,-17.25,-17.97,-17.87,0,*61
1547838087.33,59684,0.0,0.0,-17.25,-17.87,-17.97,0,*66
1547838088.6,59685,0.0,0.0,-17.25,-17.87,-17.97,0,*67
1547838089.86,59686,0.0,0.0,-17.25,-17.87,-17.97,0,*64
1547838091.11,59687,0.0,0.0,-17.23,-17.87,-17.97,0,*63
1547838092.41,59688,0.0,0.0,-17.25,-17.97,-17.97,0,*6B
1547838093.67,59689,0.0,0.0,-17.25,-17.87,-17.97,0,*6B
1547838094.97,59690,0.0,0.0,-17.25,-17.97,-17.97,0,*62
1547838096.26,59691,0.0,0.0,-17.25,-18.01,-18.01,0,*63
1547838097.54,59692,0.0,0.0,-17.27,-17.97,-17.97,0,*62
1547838098.83,59693,0.0,0.0,-17.25,-17.97,-17.97,0,*61
1547838100.11,59694,0.0,0.0,-17.25,-17.97,-17.87,0,*67
1547838101.37,59695,0.0,0.0,-17.25,-17.83,-17.97,0,*62
1547838102.64,59696,0.0,0.0,-17.25,-17.87,-18.01,0,*65
1547838103.89,59697,0.0,0.0,-17.23,-17.83,-17.97,0,*66
1547838105.15,59698,0.0,0.0,-17.25,-17.83,-17.97,0,*6F
1547838106.42,59699,0.0,0.0,-17.25,-17.87,-17.97,0,*6A
1547838107.71,59700,0.0,0.0,-17.25,-18.01,-18.01,0,*6A
1547838108.98,59701,0.0,0.0,-17.23,-18.01,-18.01,0,*6D
1547838110.28,59702,0.0,0.0,-17.25,-17.97,-17.97,0,*68
1547838111.57,59703,0.0,0.0,-17.25,-17.97,-17.97,0,*69
1547838112.87,59704,0.0,0.0,-17.25,-18.01,-17.97,0,*6E
1547838114.16,59705,0.0,0.0,-17.25,-17.97,-18.01,0,*6F
1547838115.45,59706,0.0,0.0,-17.25,-17.97,-18.01,0,*6C
1547838116.72,59707,0.0,0.0,-17.23,-17.97,-17.97,0,*6B
1547838117.99,59708,0.0,0.0,-17.25,-17.87,-17.97,0,*63
1547838119.22,59709,0.0,0.0,-17.27,-17.87,-17.87,0,*61
1547838120.46,59710,0.0,0.0,-17.25,-17.87,-17.87,0,*6B
1547838121.71,59711,0.0,0.0,-17.25,-17.87,-17.83,0,*6E
1547838122.98,59712,0.0,0.0,-17.25,-17.87,-17.97,0,*68
1547838124.25,59713,0.0,0.0,-17.23,-17.97,-17.97,0,*6E
1547838125.49,59714,0.0,0.0,-17.23,-17.83,-17.97,0,*6C
1547838126.74,59715,0.0,0.0,-17.25,-17.87,-17.87,0,*6E
1547838127.99,59716,0.0,0.0,-17.23,-17.97,-17.87,0,*6A
1547838129.28,59717,0.0,0.0,-17.25,-17.97,-17.97,0,*6C
1547838130.53,59718,0.0,0.0,-17.23,-17.97,-17.83,0,*60
1547838131.82,59719,0.0,0.0,-17.25,-17.97,-18.01,0,*62
1547838133.07,59720,0.0,0.0,-17.23,-17.97,-17.87,0,*6F
1547838134.37,59721,0.0,0.0,-17.25,-17.97,-17.97,0,*69
1547838135.64,59722,0.0,0.0,-17.23,-17.97,-17.97,0,*6C
1547838136.91,59723,0.0,0.0,-17.23,-17.97,-18.01,0,*6D
1547838138.18,59724,0.0,0.0,-17.23,-17.97,-17.97,0,*6A
1547838139.45,59725,0.0,0.0,-17.23,-17.97,-17.97,0,*6B
1547838140.72,59726,0.0,0.0,-17.23,-18.01,-17.97,0,*68
1547838142.0,59727,0.0,0.0,-17.23,-17.97,-17.97,0,*69
1547838143.27,59728,0.0,0.0,-17.23,-17.97,-17.97,0,*66
1547838144.53,59729,0.0,0.0,-17.23,-18.01,-18.01,0,*67
1547838145.82,59730,0.0,0.0,-17.25,-18.01,-18.01,0,*69
1547838147.09,59731,0.0,0.0,-17.23,-18.01,-18.01,0,*6E
1547838148.33,59732,0.0,0.0,-17.23,-17.83,-17.97,0,*68
1547838149.58,59733,0.0,0.0,-17.23,-17.87,-18.01,0,*6D
1547838150.84,59734,0.0,0.0,-17.23,-18.01,-18.01,0,*6B
1547838152.11,59735,0.0,0.0,-17.23,-18.01,-18.01,0,*6A
1547838153.35,59736,0.0,0.0,-17.23,-18.01,-18.11,0,*68
1547838154.59,59737,0.0,0.0,-17.23,-17.87,-18.01,0,*69
1547838155.83,59738,0.0,0.0,-17.23,-17.87,-18.01,0,*66
1547838157.1,59739,0.0,0.0,-17.23,-17.97,-18.01,0,*66
1547838158.37,59740,0.0,0.0,-17.23,-18.01,-18.01,0,*68
1547838159.61,59741,0.0,0.0,-17.23,-18.11,-18.01,0,*68
1547838160.85,59742,0.0,0.0,-17.23,-18.01,-18.11,0,*6B
1547838162.06,59743,0.0,0.0,-17.23,-18.17,-18.17,0,*6B
1547838163.3,59744,0.0,0.0,-17.23,-18.01,-18.17,0,*6B
1547838164.52,59745,0.0,0.0,-17.23,-18.17,-18.11,0,*6B
1547838165.73,59746,0.0,0.0,-17.23,-18.17,-18.17,0,*6E
1547838166.94,59747,0.0,0.0,-17.23,-18.11,-18.11,0,*6F
1547838168.16,59748,0.0,0.0,-17.23,-18.11,-18.11,0,*60
1547838169.43,59749,0.0,0.0,-17.25,-18.01,-18.11,0,*66
1547838170.64,59750,0.0,0.0,-17.23,-18.11,-18.17,0,*6F
1547838171.88,59751,0.0,0.0,-17.23,-18.01,-18.11,0,*69
1547838173.13,59752,0.0,0.0,-17.23,-18.01,-18.11,0,*6A
1547838174.42,59753,0.0,0.0,-17.21,-17.93,-17.97,0,*6C
1547838175.69,59754,0.0,0.0,-17.23,-18.01,-18.01,0,*6D
1547838176.9,59755,0.0,0.0,-17.23,-18.11,-18.11,0,*6C
1547838178.11,59756,0.0,0.0,-17.23,-18.17,-18.17,0,*6F
1547838179.32,59757,0.0,0.0,-17.23,-18.11,-18.17,0,*68
1547838180.56,59758,0.0,0.0,-17.25,-18.11,-18.11,0,*67
1547838181.85,59759,0.0,0.0,-17.25,-18.01,-18.01,0,*66
1547838183.1,59760,0.0,0.0,-17.23,-18.01,-18.11,0,*6B
1547838184.37,59761,0.0,0.0,-17.23,-17.97,-18.01,0,*6B
1547838185.64,59762,0.0,0.0,-17.23,-17.97,-18.01,0,*68
1547838186.9,59763,0.0,0.0,-17.23,-18.01,-18.01,0,*69
1547838188.17,59764,0.0,0.0,-17.23,-18.01,-18.01,0,*6E
1547838189.44,59765,0.0,0.0,-17.23,-17.97,-18.01,0,*6F
1547838190.71,59766,0.0,0.0,-17.23,-17.97,-17.97,0,*6C
1547838191.98,59767,0.0,0.0,-17.23,-18.01,-18.01,0,*6D
1547838193.25,59768,0.0,0.0,-17.23,-17.97,-17.97,0,*62
1547838194.52,59769,0.0,0.0,-17.23,-17.97,-18.01,0,*63
1547838195.76,59770,0.0,0.0,-17.23,-18.01,-18.11,0,*6A
1547838196.98,59771,0.0,0.0,-17.23,-18.11,-18.11,0,*6A
1547838198.2,59772,0.0,0.0,-17.23,-18.11,-18.11,0,*69
1547838199.46,59773,0.0,0.0,-17.21,-17.97,-18.07,0,*6C
1547838200.73,59774,0.0,0.0,-17.21,-17.97,-18.07,0,*6B
1547838201.97,59775,0.0,0.0,-17.23,-18.01,-18.17,0,*69
1547838203.21,59776,0.0,0.0,-17.23,-18.01,-18.17,0,*6A
1547838204.41,59777,0.0,0.0,-17.23,-18.11,-18.17,0,*6A
1547838205.62,59778,0.0,0.0,-17.23,-18.11,-18.17,0,*65
1547838206.87,59779,0.0,0.0,-17.21,-18.07,-18.11,0,*67
1547838208.11,59780,0.0,0.0,-17.21,-18.07,-18.07,0,*66
1547838209.35,59781,0.0,0.0,-17.21,-18.07,-18.07,0,*67
1547838210.62,59782,0.0,0.0,-17.21,-17.97,-18.07,0,*62
1547838211.86,59783,0.0,0.0,-17.21,-18.07,-18.07,0,*65
1547838213.08,59784,0.0,0.0,-17.23,-18.11,-18.11,0,*60
1547838214.32,59785,0.0,0.0,-17.23,-18.01,-18.11,0,*60
1547838215.61,59786,0.0,0.0,-17.25,-18.01,-18.01,0,*64
1547838216.88,59787,0.0,0.0,-17.23,-18.01,-18.01,0,*63
1547838218.15,59788,0.0,0.0,-17.23,-17.97,-18.01,0,*6C
1547838219.44,59789,0.0,0.0,-17.25,-17.97,-17.97,0,*6B
1547838220.74,59790,0.0,0.0,-17.21,-17.93,-17.97,0,*63
1547838222.02,59791,0.0,0.0,-17.21,-17.93,-17.93,0,*66
1547838223.29,59792,0.0,0.0,-17.23,-18.01,-17.97,0,*67
1547838224.56,59793,0.0,0.0,-17.23,-17.97,-17.97,0,*66
1547838225.83,59794,0.0,0.0,-17.23,-17.97,-17.97,0,*61
1547838227.11,59795,0.0,0.0,-17.23,-17.97,-17.97,0,*60
1547838228.37,59796,0.0,0.0,-17.23,-17.97,-18.01,0,*63
1547838229.64,59797,0.0,0.0,-17.23,-18.01,-17.97,0,*62
1547838230.92,59798,0.0,0.0,-17.23,-17.97,-17.97,0,*6D
1547838232.21,59799,0.0,0.0,-17.21,-17.93,-17.97,0,*6A
1547838233.48,59800,0.0,0.0,-17.21,-17.97,-18.07,0,*67
1547838234.74,59801,0.0,0.0,-17.21,-17.93,-18.07,0,*62
1547838236.04,59802,0.0,0.0,-17.21,-17.97,-17.97,0,*63
1547838237.31,59803,0.0,0.0,-17.23,-18.01,-17.97,0,*60
1547838238.6,59804,0.0,0.0,-17.21,-17.97,-17.93,0,*61
1547838239.87,59805,0.0,0.0,-17.23,-17.97,-17.97,0,*66
1547838241.14,59806,0.0,0.0,-17.23,-17.97,-18.01,0,*65
1547838242.43,59807,0.0,0.0,-17.25,-17.97,-17.97,0,*62
1547838243.67,59808,0.0,0.0,-17.23,-17.87,-18.01,0,*6A
1547838244.95,59809,0.0,0.0,-17.23,-17.97,-17.97,0,*6A
1547838246.21,59810,0.0,0.0,-17.25,-17.87,-17.97,0,*65
1547838247.5,59811,0.0,0.0,-17.21,-17.79,-17.93,0,*65
1547838248.79,59812,0.0,0.0,-17.21,-17.93,-17.97,0,*66
1547838250.07,59813,0.0,0.0,-17.21,-17.93,-17.93,0,*63
1547838251.33,59814,0.0,0.0,-17.21,-17.83,-17.93,0,*65
1547838252.58,59815,0.0,0.0,-17.23,-17.87,-17.97,0,*66
1547838253.84,59816,0.0,0.0,-17.21,-17.93,-17.83,0,*67
1547838255.14,59817,0.0,0.0,-17.21,-17.93,-17.97,0,*63
1547838256.42,59818,0.0,0.0,-17.21,-17.97,-17.93,0,*6C
1547838257.72,59819,0.0,0.0,-17.21,-17.93,-17.97,0,*6D
1547838259.0,59820,0.0,0.0,-17.21,-17.93,-17.93,0,*63
1547838260.29,59821,0.0,0.0,-17.21,-17.97,-17.93,0,*66
1547838261.55,59822,0.0,0.0,-17.21,-17.83,-17.93,0,*60
1547838262.83,59823,0.0,0.0,-17.21,-17.93,-17.93,0,*60
1547838264.12,59824,0.0,0.0,-17.21,-17.93,-17.97,0,*63
1547838265.41,59825,0.0,0.0,-17.21,-17.93,-17.93,0,*66
1547838266.68,59826,0.0,0.0,-17.21,-17.93,-17.83,0,*64
1547838267.94,59827,0.0,0.0,-17.21,-17.93,-17.83,0,*65
1547838269.23,59828,0.0,0.0,-17.21,-17.93,-17.93,0,*6B
1547838270.5,59829,0.0,0.0,-17.21,-17.83,-17.97,0,*6F
1547838271.78,59830,0.0,0.0,-17.21,-17.97,-17.93,0,*66
1547838273.05,59831,0.0,0.0,-17.17,-17.87,-17.93,0,*63
1547838274.33,59832,0.0,0.0,-17.21,-17.93,-17.93,0,*60
1547838275.6,59833,0.0,0.0,-17.21,-17.83,-17.97,0,*64
1547838276.89,59834,0.0,0.0,-17.21,-17.93,-17.93,0,*66
1547838278.17,59835,0.0,0.0,-17.21,-17.93,-17.93,0,*67
1547838279.46,59836,0.0,0.0,-17.21,-17.93,-17.97,0,*60
1547838280.74,59837,0.0,0.0,-17.21,-17.93,-17.93,0,*65
1547838282.04,59838,0.0,0.0,-17.21,-17.97,-17.97,0,*6A
1547838283.33,59839,0.0,0.0,-17.17,-17.93,-18.01,0,*6A
1547838284.62,59840,0.0,0.0,-17.21,-17.93,-17.97,0,*61
1547838285.91,59841,0.0,0.0,-17.21,-17.93,-17.93,0,*64
1547838287.17,59842,0.0,0.0,-17.21,-17.83,-17.93,0,*66
1547838288.45,59843,0.0,0.0,-17.21,-17.79,-17.93,0,*62
1547838289.69,59844,0.0,0.0,-17.21,-17.83,-17.83,0,*61
1547838290.97,59845,0.0,0.0,-17.21,-17.79,-17.93,0,*64
1547838292.22,59846,0.0,0.0,-17.21,-17.83,-17.83,0,*63
1547838293.5,59847,0.0,0.0,-17.17,-17.79,-17.93,0,*63
1547838294.76,59848,0.0,0.0,-17.21,-17.83,-17.93,0,*6C
1547838296.05,59849,0.0,0.0,-17.21,-17.93,-17.93,0,*6C
1547838297.33,59850,0.0,0.0,-17.21,-17.79,-17.93,0,*60
1547838298.59,59851,0.0,0.0,-17.21,-17.83,-17.79,0,*60
1547838299.88,59852,0.0,0.0,-17.17,-17.79,-17.79,0,*63
1547838301.14,59853,0.0,0.0,-17.21,-17.93,-17.83,0,*66
1547838302.41,59854,0.0,0.0,-17.21,-17.83,-17.93,0,*61
1547838303.67,59855,0.0,0.0,-17.21,-17.83,-17.93,0,*60
1547838304.95,59856,0.0,0.0,-17.21,-17.93,-17.93,0,*62
1547838306.21,59857,0.0,0.0,-17.21,-17.83,-17.93,0,*62
1547838307.5,59858,0.0,0.0,-17.21,-17.93,-17.97,0,*68
1547838308.79,59859,0.0,0.0,-17.21,-17.93,-17.93,0,*6D
1547838310.07,59860,0.0,0.0,-17.21,-17.93,-17.93,0,*67
1547838311.33,59861,0.0,0.0,-17.21,-17.83,-17.93,0,*67
1547838312.6,59862,0.0,0.0,-17.17,-17.79,-17.87,0,*61
1547838313.86,59863,0.0,0.0,-17.17,-17.87,-17.93,0,*64
1547838315.15,59864,0.0,0.0,-17.21,-17.93,-17.93,0,*63
1547838316.43,59865,0.0,0.0,-17.21,-17.93,-17.93,0,*62
1547838317.72,59866,0.0,0.0,-17.21,-17.93,-17.97,0,*65
1547838318.97,59867,0.0,0.0,-17.17,-17.87,-17.87,0,*65
1547838320.23,59868,0.0,0.0,-17.17,-17.87,-17.93,0,*6F
1547838321.48,59869,0.0,0.0,-17.21,-17.83,-17.83,0,*6E
1547838322.74,59870,0.0,0.0,-17.21,-17.79,-17.83,0,*63
1547838324.01,59871,0.0,0.0,-17.21,-17.79,-17.83,0,*62
1547838325.25,59872,0.0,0.0,-17.21,-17.83,-17.83,0,*64
1547838326.54,59873,0.0,0.0,-17.17,-17.79,-17.79,0,*60
1547838327.82,59874,0.0,0.0,-17.21,-17.79,-17.93,0,*66
1547838329.06,59875,0.0,0.0,-17.21,-17.83,-17.83,0,*63
1547838330.34,59876,0.0,0.0,-17.21,-17.79,-17.93,0,*64
1547838331.62,59877,0.0,0.0,-17.21,-17.79,-17.93,0,*65
1547838332.87,59878,0.0,0.0,-17.21,-17.83,-17.83,0,*6E
1547838334.13,59879,0.0,0.0,-17.17,-17.73,-17.79,0,*60
1547838335.37,59880,0.0,0.0,-17.21,-17.83,-17.83,0,*69
1547838336.64,59881,0.0,0.0,-17.17,-17.79,-17.87,0,*6C
1547838337.91,59882,0.0,0.0,-17.17,-17.79,-17.87,0,*6F
1547838339.18,59883,0.0,0.0,-17.21,-17.83,-17.97,0,*6F
1547838340.42,59884,0.0,0.0,-17.21,-17.83,-17.83,0,*6D
1547838341.69,59885,0.0,0.0,-17.21,-17.93,-17.83,0,*6D
1547838342.95,59886,0.0,0.0,-17.21,-17.79,-17.83,0,*6A
1547838344.24,59887,0.0,0.0,-17.17,-17.79,-17.79,0,*6B
1547838345.48,59888,0.0,0.0,-17.17,-17.73,-17.87,0,*6F
1547838346.72,59889,0.0,0.0,-17.17,-17.73,-17.73,0,*65
1547838348.01,59890,0.0,0.0,-17.17,-17.79,-17.79,0,*6D
1547838349.29,59891,0.0,0.0,-17.17,-17.79,-17.79,0,*6C
1547838350.55,59892,0.0,0.0,-17.17,-17.73,-17.79,0,*65
1547838351.82,59893,0.0,0.0,-17.17,-17.73,-17.79,0,*64
1547838353.08,59894,0.0,0.0,-17.17,-17.73,-17.79,0,*63
1547838354.35,59895,0.0,0.0,-17.21,-17.79,-17.83,0,*68
1547838355.63,59896,0.0,0.0,-17.17,-17.79,-17.79,0,*6B
1547838356.9,59897,0.0,0.0,-17.17,-17.73,-17.79,0,*60
1547838358.18,59898,0.0,0.0,-17.17,-17.79,-17.79,0,*65
1547838359.47,59899,0.0,0.0,-17.17,-17.79,-17.79,0,*64
1547838360.73,59900,0.0,0.0,-17.17,-17.79,-17.73,0,*6F
1547838361.99,59901,0.0,0.0,-17.21,-17.79,-17.83,0,*64
1547838363.28,59902,0.0,0.0,-17.17,-17.79,-17.79,0,*67
1547838364.54,59903,0.0,0.0,-17.17,-17.79,-17.73,0,*6C
1547838365.8,59904,0.0,0.0,-17.17,-17.79,-17.73,0,*6B
1547838367.03,59905,0.0,0.0,-17.17,-17.73,-17.73,0,*60
1547838368.29,59906,0.0,0.0,-17.17,-17.79,-17.73,0,*69
1547838369.56,59907,0.0,0.0,-17.21,-17.83,-17.93,0,*66
1547838370.82,59908,0.0,0.0,-17.21,-17.79,-17.83,0,*6D
1547838372.08,59909,0.0,0.0,-17.21,-17.79,-17.83,0,*6C
1547838373.35,59910,0.0,0.0,-17.17,-17.79,-17.87,0,*65
1547838374.62,59911,0.0,0.0,-17.17,-17.87,-17.79,0,*64
1547838375.88,59912,0.0,0.0,-17.17,-17.87,-17.79,0,*67
1547838377.13,59913,0.0,0.0,-17.17,-17.87,-17.87,0,*67
1547838378.4,59914,0.0,0.0,-17.17,-17.87,-17.79,0,*61
1547838379.67,59915,0.0,0.0,-17.17,-17.93,-17.87,0,*64
1547838380.96,59916,0.0,0.0,-17.21,-17.93,-17.97,0,*63
1547838382.24,59917,0.0,0.0,-17.21,-17.93,-17.93,0,*66
1547838383.51,59918,0.0,0.0,-17.17,-17.93,-18.07,0,*6E
1547838384.76,59919,0.0,0.0,-17.17,-18.07,-18.07,0,*6D
1547838386.0,59920,0.0,0.0,-17.17,-18.07,-18.11,0,*60
1547838387.27,59921,0.0,0.0,-17.17,-18.01,-18.07,0,*60
1547838388.52,59922,0.0,0.0,-17.17,-18.07,-18.07,0,*65
1547838389.79,59923,0.0,0.0,-17.17,-18.01,-18.07,0,*62
1547838391.03,59924,0.0,0.0,-17.17,-18.07,-18.07,0,*63
1547838392.26,59925,0.0,0.0,-17.21,-18.11,-18.17,0,*61
1547838393.51,59926,0.0,0.0,-17.17,-18.07,-18.11,0,*66
1547838394.75,59927,0.0,0.0,-17.21,-18.07,-18.07,0,*65
1547838396.04,59928,0.0,0.0,-17.17,-18.01,-18.01,0,*6F
1547838397.28,59929,0.0,0.0,-17.21,-18.11,-18.07,0,*6C
1547838398.52,59930,0.0,0.0,-17.21,-18.11,-18.11,0,*63
1547838399.77,59931,0.0,0.0,-17.21,-18.07,-18.07,0,*62
1547838401.06,59932,0.0,0.0,-17.17,-18.01,-18.01,0,*64
1547838402.33,59933,0.0,0.0,-17.21,-17.97,-18.07,0,*66
1547838403.62,59934,0.0,0.0,-17.21,-17.97,-17.97,0,*67
1547838404.91,59935,0.0,0.0,-17.21,-17.93,-17.93,0,*66
1547838406.19,59936,0.0,0.0,-17.17,-17.93,-17.93,0,*60
1547838407.48,59937,0.0,0.0,-17.21,-17.93,-17.93,0,*64
1547838408.74,59938,0.0,0.0,-17.17,-17.79,-17.87,0,*6F
1547838410.01,59939,0.0,0.0,-17.21,-17.79,-17.83,0,*6F
1547838411.29,59940,0.0,0.0,-17.21,-17.79,-17.79,0,*64
1547838412.56,59941,0.0,0.0,-17.21,-17.79,-17.83,0,*60
1547838413.84,59942,0.0,0.0,-17.17,-17.79,-17.79,0,*63
1547838415.11,59943,0.0,0.0,-17.21,-17.79,-17.83,0,*62
1547838416.37,59944,0.0,0.0,-17.21,-17.83,-17.79,0,*65
1547838417.66,59945,0.0,0.0,-17.17,-17.79,-17.79,0,*64
1547838418.92,59946,0.0,0.0,-17.21,-17.83,-17.79,0,*67
1547838420.21,59947,0.0,0.0,-17.17,-17.93,-17.93,0,*66
1547838421.48,59948,0.0,0.0,-17.17,-17.93,-17.87,0,*6C
1547838422.74,59949,0.0,0.0,-17.21,-17.83,-17.93,0,*6C
1547838424.02,59950,0.0,0.0,-17.17,-17.79,-17.79,0,*60
1547838425.29,59951,0.0,0.0,-17.21,-17.79,-17.83,0,*61
1547838426.54,59952,0.0,0.0,-17.17,-17.87,-17.87,0,*62
1547838427.8,59953,0.0,0.0,-17.17,-17.79,-17.87,0,*62
1547838429.05,59954,0.0,0.0,-17.21,-17.83,-17.83,0,*61
1547838430.29,59955,0.0,0.0,-17.21,-17.83,-17.83,0,*60
1547838431.54,59956,0.0,0.0,-17.17,-17.87,-17.87,0,*66
1547838432.8,59957,0.0,0.0,-17.21,-17.83,-17.93,0,*63
1547838434.09,59958,0.0,0.0,-17.21,-17.93,-17.97,0,*69
1547838435.34,59959,0.0,0.0,-17.17,-17.87,-17.87,0,*69
1547838436.6,59960,0.0,0.0,-17.17,-17.79,-17.87,0,*62
1547838437.87,59961,0.0,0.0,-17.17,-17.79,-17.87,0,*63
1547838439.13,59962,0.0,0.0,-17.21,-17.79,-17.83,0,*61
1547838440.42,59963,0.0,0.0,-17.17,-17.79,-17.79,0,*60
1547838441.67,59964,0.0,0.0,-17.21,-17.83,-17.83,0,*62
1547838442.93,59965,0.0,0.0,-17.21,-17.83,-17.93,0,*62
1547838444.19,59966,0.0,0.0,-17.17,-17.79,-17.87,0,*64
1547838445.46,59967,0.0,0.0,-17.17,-17.79,-17.87,0,*65
1547838446.74,59968,0.0,0.0,-17.17,-17.79,-17.93,0,*6F
1547838448.03,59969,0.0,0.0,-17.17,-17.79,-17.79,0,*6A
1547838449.29,59970,0.0,0.0,-17.21,-17.83,-17.93,0,*66
1547838450.55,59971,0.0,0.0,-17.17,-17.73,-17.79,0,*69
1547838451.83,59972,0.0,0.0,-17.21,-17.79,-17.93,0,*61
1547838453.12,59973,0.0,0.0,-17.17,-17.79,-17.79,0,*61
1547838454.41,59974,0.0,0.0,-17.17,-17.79,-17.79,0,*66
1547838455.65,59975,0.0,0.0,-17.17,-17.73,-17.87,0,*6C
1547838456.9,59976,0.0,0.0,-17.21,-17.83,-17.83,0,*61
1547838458.16,59977,0.0,0.0,-17.17,-17.79,-17.87,0,*64
1547838459.4,59978,0.0,0.0,-17.17,-17.87,-17.73,0,*61
1547838460.67,59979,0.0,0.0,-17.17,-17.87,-17.93,0,*6E
1547838461.93,59980,0.0,0.0,-17.17,-17.79,-17.87,0,*6C
1547838463.18,59981,0.0,0.0,-17.17,-17.87,-17.87,0,*6C
1547838464.45,59982,0.0,0.0,-17.17,-17.79,-17.87,0,*6E
1547838465.71,59983,0.0,0.0,-17.17,-17.73,-17.79,0,*64
1547838466.95,59984,0.0,0.0,-17.17,-17.87,-17.73,0,*62
1547838468.24,59985,0.0,0.0,-17.17,-17.79,-17.79,0,*68
1547838469.5,59986,0.0,0.0,-17.17,-17.73,-17.79,0,*61
1547838470.76,59987,0.0,0.0,-17.21,-17.83,-17.79,0,*6A
1547838472.03,59988,0.0,0.0,-17.17,-17.87,-17.79,0,*64
1547838473.3,59989,0.0,0.0,-17.17,-17.73,-17.79,0,*6E
1547838474.54,59990,0.0,0.0,-17.17,-17.73,-17.87,0,*67
1547838475.8,59991,0.0,0.0,-17.17,-17.87,-17.93,0,*68
1547838477.05,59992,0.0,0.0,-17.13,-17.87,-17.93,0,*6F
1547838478.29,59993,0.0,0.0,-17.13,-17.87,-17.93,0,*6E
1547838479.58,59994,0.0,0.0,-17.17,-17.93,-17.93,0,*68
1547838480.86,59995,0.0,0.0,-17.17,-17.93,-17.93,0,*69
1547838482.15,59996,0.0,0.0,-17.17,-17.93,-18.01,0,*6E
1547838483.42,59997,0.0,0.0,-17.17,-18.01,-18.07,0,*6D
1547838484.69,59998,0.0,0.0,-17.17,-18.01,-18.07,0,*62
1547838485.98,59999,0.0,0.0,-17.17,-18.01,-17.93,0,*61
1547838487.27,60000,0.0,0.0,-17.17,-17.93,-18.01,0,*62
1547838488.56,60001,0.0,0.0,-17.17,-17.93,-17.93,0,*67
1547838489.85,60002,0.0,0.0,-17.17,-18.01,-18.01,0,*64
1547838491.15,60003,0.0,0.0,-17.17,-18.01,-18.01,0,*65
1547838492.41,60004,0.0,0.0,-17.17,-17.93,-18.07,0,*60
1547838493.7,60005,0.0,0.0,-17.17,-17.93,-18.01,0,*67
1547838494.95,60006,0.0,0.0,-17.17,-17.87,-17.87,0,*60
1547838496.24,60007,0.0,0.0,-17.21,-17.93,-17.93,0,*64
1547838497.48,60008,0.0,0.0,-17.17,-17.87,-17.87,0,*6E
1547838498.73,60009,0.0,0.0,-17.17,-17.87,-17.87,0,*6F
1547838500.0,60010,0.0,0.0,-17.17,-17.79,-17.87,0,*66
1547838501.29,60011,0.0,0.0,-17.17,-17.93,-18.01,0,*62
1547838502.53,60012,0.0,0.0,-17.21,-18.07,-18.11,0,*67
1547838503.79,60013,0.0,0.0,-17.17,-17.87,-17.93,0,*61
1547838505.04,60014,0.0,0.0,-17.17,-17.87,-17.87,0,*63
1547838506.29,60015,0.0,0.0,-17.21,-17.83,-17.83,0,*67
1547838507.55,60016,0.0,0.0,-17.17,-17.87,-17.79,0,*60
1547838508.8,60017,0.0,0.0,-17.21,-17.83,-17.83,0,*65
1547838510.06,60018,0.0,0.0,-17.17,-17.87,-17.79,0,*6E
1547838511.33,60019,0.0,0.0,-17.17,-17.87,-17.93,0,*6B
1547838512.57,60020,0.0,0.0,-17.17,-17.73,-17.87,0,*6F
1547838513.86,60021,0.0,0.0,-17.17,-17.79,-17.79,0,*65
1547838515.15,60022,0.0,0.0,-17.17,-17.93,-17.93,0,*66
1547838516.43,60023,0.0,0.0,-17.21,-17.93,-17.93,0,*62
1547838517.7,60024,0.0,0.0,-17.17,-17.79,-17.87,0,*61
1547838518.98,60025,0.0,0.0,-17.17,-17.79,-17.79,0,*61
1547838520.25,60026,0.0,0.0,-17.17,-17.79,-17.87,0,*63
1547838521.54,60027,0.0,0.0,-17.17,-17.79,-17.79,0,*63
1547838522.8,60028,0.0,0.0,-17.17,-17.79,-17.87,0,*6D
1547838524.07,60029,0.0,0.0,-17.17,-17.79,-17.87,0,*6C
1547838525.34,60030,0.0,0.0,-17.17,-17.87,-17.79,0,*64
1547838526.6,60031,0.0,0.0,-17.17,-17.79,-17.87,0,*65
1547838527.85,60032,0.0,0.0,-17.17,-17.87,-17.87,0,*67
1547838529.12,60033,0.0,0.0,-17.17,-17.87,-17.79,0,*67
1547838530.4,60034,0.0,0.0,-17.17,-17.79,-17.79,0,*61
1547838531.69,60035,0.0,0.0,-17.17,-17.79,-17.79,0,*60
1547838532.96,60036,0.0,0.0,-17.17,-17.79,-17.87,0,*62
1547838534.22,60037,0.0,0.0,-17.17,-17.79,-17.73,0,*68
1547838535.45,60038,0.0,0.0,-17.13,-17.79,-17.73,0,*63
1547838536.72,60039,0.0,0.0,-17.13,-17.79,-17.79,0,*68
1547838538.0,60040,0.0,0.0,-17.17,-17.79,-17.79,0,*62
1547838539.27,60041,0.0,0.0,-17.17,-17.73,-17.79,0,*69
1547838540.53,60042,0.0,0.0,-17.17,-17.73,-17.79,0,*6A
1547838541.77,60043,0.0,0.0,-17.13,-17.73,-17.79,0,*6F
1547838543.04,60044,0.0,0.0,-17.13,-17.79,-17.79,0,*62
1547838544.28,60045,0.0,0.0,-17.13,-17.73,-17.79,0,*69
1547838545.55,60046,0.0,0.0,-17.13,-17.79,-17.79,0,*60
1547838546.79,60047,0.0,0.0,-17.13,-17.73,-17.79,0,*6B
1547838548.05,60048,0.0,0.0,-17.13,-17.79,-17.79,0,*6E
1547838549.3,60049,0.0,0.0,-17.13,-17.79,-17.87,0,*6E
1547838550.54,60050,0.0,0.0,-17.13,-17.79,-17.87,0,*66